[[{"header":{"parameterUnit":"m.s-1","parameterCategory":1,"la1":30.2991,"la2":30.254,"lo1":-89.0895,"lo2":-89.0444,"dy":0.0017,"dx":0.0017,"nx":28,"ny":28,"refTime":"2025-06-15T21:00:00:Z","depth":0,"parameterNumber":2,"parameterNumberName":"U-component_of_WINDS"},"data":[0,0,0,0,0,0,0,0,0,0,0,0,0,0,0,0,0,0,0,0,0,0,0,0,0,0,0,0,0,0,0,0,0,0,0,0,0,0,0,0,0,0,0,0,0,0,0,0,0,0,0,0,0,0,0,0,0,0,0.3187,0.3187,0,0.3196,0.3197,0.3197,0.3161,0.3159,0.3158,0.3157,0.3171,0.3172,0.3174,0,0,0,0,0,0,0,0,0,0,0,0,0,0.3139,0.314,0.3187,0.3187,0.3187,0.3196,0.3197,0.3197,0.3161,0.3159,0.3158,0.3157,0.3171,0.3172,0.3174,0,0,0,0,0,0,0,0,0,0,0,0,0,0.3156,0.3141,0.3187,0.317,0.3169,0.3196,0.3197,0.3197,0.3161,0.3159,0.3158,0.3156,0.317,0.3172,0.3174,0.322,0,0,0.318,0.3181,0,0,0,0,0,0,0,0,0.3155,0.3157,0.3172,0.3171,0.317,0.3176,0.3185,0.3205,0.3161,0.3164,0.3157,0.3155,0.3174,0.3176,0.3181,0.322,0.3221,0.3181,0.3182,0.3183,0.3183,0,0,0,0,0,0,0,0.3154,0.3157,0.3191,0.3173,0.3171,0.3163,0.3163,0.3188,0.3178,0.3164,0.3161,0.3163,0.3173,0.3179,0.3181,0.3221,0.3181,0.3182,0.3184,0.3184,0.3296,0.3298,0,0,0,0,0,0,0.3154,0.3156,0.319,0.3191,0.3158,0.3165,0.3166,0.3175,0.3178,0.3177,0.3164,0.3161,0.3177,0.3179,0.3182,0.3234,0.3183,0.3185,0.3186,0.3294,0.3296,0.3298,0,0,0,0,0,0,0.3153,0.3158,0.319,0.3173,0.3176,0.3167,0.3179,0.3176,0.3183,0.3178,0.3176,0.3172,0.3175,0.3179,0.321,0.3234,0.3186,0.3187,0.3292,0.3295,0.3297,0.334,0,0,0,0,0,0,0.3152,0.3158,0.3174,0.3173,0.3177,0.3218,0.318,0.3178,0.3186,0.3182,0.3185,0.3184,0.3174,0.3207,0.3212,0.3236,0.3189,0.329,0.3294,0.3297,0.3337,0.3344,0.335,0,0,0,0,0,0.3151,0.3187,0.3175,0.318,0.3198,0.3219,0.3221,0.3208,0.3188,0.3205,0.3202,0.3184,0.323,0.321,0.3216,0.3241,0.3289,0.3293,0.3296,0.3334,0.3343,0.335,0,0,0,0,0,0,0.3193,0.3187,0.3174,0.3211,0.3216,0.3213,0.3234,0.3218,0.323,0.3226,0.321,0.3211,0.3245,0.3246,0.3224,0.3284,0.3256,0.3261,0.3283,0.3291,0.3298,0.3297,0.3191,0,0,0,0,0,0.3207,0.3223,0.3217,0.3251,0.3253,0.3243,0.3252,0.3241,0.3246,0.3248,0.3247,0.3253,0.3269,0.328,0.3294,0.3336,0.3336,0.3356,0.3363,0.3368,0.3374,0.3395,0.3403,0.3311,0.3311,0.3311,0,0,0.3235,0.3234,0.3246,0.3259,0.3261,0.328,0.3245,0.3267,0.328,0.3252,0.3281,0.328,0.3286,0.3322,0.3338,0.3324,0.3399,0.3373,0.3378,0.338,0.34,0.3408,0.3416,0.3314,0.3313,0.3313,0,0,0.3297,0.3297,0.3325,0.3327,0.333,0.3323,0.3329,0.3328,0.3326,0.3354,0.3333,0.3349,0.3377,0.3382,0.3388,0.3448,0.3432,0.3453,0.3489,0.351,0.3518,0.3524,0.3545,0.3553,0.3458,0.3458,0.3458,0,0.3332,0.3358,0.3341,0.3363,0.3369,0.3342,0.337,0.3374,0.3382,0.3387,0.3371,0.3404,0.3406,0.3442,0.3457,0.3463,0.347,0.3453,0.3518,0.3524,0.353,0.355,0.3558,0.3461,0.346,0.346,0.346,0,0.3401,0.3419,0.3441,0.3448,0.3456,0.3481,0.3468,0.3479,0.3467,0.3462,0.349,0.3491,0.3505,0.3513,0.3502,0.3547,0.3538,0.352,0.3492,0.3541,0.356,0.3568,0.3464,0.3463,0.3463,0.3462,0,0,0.3492,0.3487,0.3495,0.3497,0.3498,0.3512,0.3535,0.3546,0.3556,0.3562,0.3582,0.3604,0.3587,0.3593,0.3583,0.3601,0.3648,0.358,0.358,0.3593,0.3698,0.3712,0.3722,0.3637,0.3638,0.364,0.3698,0,0.3552,0.359,0.3575,0.3615,0.3631,0.3605,0.3625,0.3628,0.3623,0.3636,0.3631,0.3647,0.3623,0.3626,0.3643,0.3639,0.3669,0.3635,0.3656,0.3657,0.3656,0.3731,0.3747,0.3802,0.3705,0.3706,0.3707,0,0.3628,0.3635,0.3676,0.3672,0.3678,0.3697,0.3705,0.3718,0.372,0.3715,0.3722,0.3706,0.3729,0.3699,0.3731,0.3707,0.3715,0.3714,0.3716,0.3718,0.3686,0.3736,0.3819,0.3827,0.3718,0.3718,0.3717,0,0.369,0.371,0.3736,0.3739,0.3735,0.3748,0.3748,0.3748,0.3755,0.3763,0.3768,0.3778,0.3785,0.3794,0.3782,0.3761,0.3815,0.3784,0.3812,0.3812,0.3825,0.3825,0.3911,0.3829,0.3829,0.3829,0.3829,0,0.3759,0.3785,0.3764,0.3781,0.3809,0.3791,0.382,0.3816,0.3816,0.3832,0.381,0.3826,0.3808,0.3822,0.3813,0.384,0.3843,0.384,0.3838,0.3843,0.3843,0.3848,0.3844,0.3831,0.383,0.383,0.383,0,0.3834,0.382,0.3848,0.3841,0.3839,0.3861,0.3855,0.387,0.3863,0.3883,0.3887,0.3875,0.389,0.3879,0.3894,0.3888,0.3924,0.3916,0.3923,0.3921,0.3949,0.3947,0.4042,0.4053,0.3964,0.3965,0.3965,0,0.3879,0.3898,0.3892,0.3901,0.39,0.3914,0.3921,0.3903,0.3911,0.3914,0.3929,0.3942,0.3951,0.3977,0.397,0.3982,0.3974,0.4007,0.3976,0.398,0.3975,0.3974,0.3976,0.4013,0.4014,0.4015,0.4016,0,0.3961,0.3953,0.3963,0.397,0.3978,0.3984,0.3987,0.3995,0.3977,0.3987,0.4001,0.4009,0.4023,0.4036,0.4045,0.4044,0.4028,0.4025,0.4032,0.4038,0.4042,0.404,0.394,0.4024,0.4023,0.4022,0.4022,0.4022,0.4023,0.4038,0.4036,0.4047,0.4048,0.4051,0.4065,0.4058,0.4069,0.4078,0.4067,0.4084,0.4085,0.4094,0.4096,0.411,0.4096,0.4107,0.4109,0.4112,0.4116,0.4038,0.4111,0.4111,0.4111,0.411,0.411,0,0.4104,0.41,0.4111,0.4115,0.4124,0.4105,0.4108,0.4117,0.4132,0.4133,0.4142,0.4158,0.417,0.4163,0.4174,0.4186,0.4178,0.4189,0.4189,0.4189,0.4127,0.412,0.4195,0.4195,0.4195,0.4195,0.4195,0.4195,0.4147,0.4172,0.4163,0.4188,0.4184,0.42,0.4203,0.4206,0.4206,0.4224,0.4234,0.4229,0.4227,0.4237,0.4247,0.4245,0.425,0.4264,0.4259,0.4202,0.4194,0.4186,0.4179,0.4265,0.4265,0.4319,0.432,0.432]},{"header":{"parameterUnit":"m.s-1","parameterCategory":1,"la1":30.2991,"la2":30.254,"lo1":-89.0895,"lo2":-89.0444,"dy":0.0017,"dx":0.0017,"nx":28,"ny":28,"refTime":"2025-06-15T21:00:00:Z","depth":0,"parameterNumber":3,"parameterNumberName":"V-component_of_WINDS"},"data":[0,0,0,0,0,0,0,0,0,0,0,0,0,0,0,0,0,0,0,0,0,0,0,0,0,0,0,0,0,0,0,0,0,0,0,0,0,0,0,0,0,0,0,0,0,0,0,0,0,0,0,0,0,0,0,0,0,0,4.9128,4.9129,0,4.927,4.9271,4.9273,4.9225,4.9222,4.9219,4.9216,4.9351,4.9357,4.9364,0,0,0,0,0,0,0,0,0,0,0,0,0,4.8803,4.881,4.9128,4.913,4.9131,4.9269,4.9271,4.9273,4.9225,4.9222,4.9218,4.9215,4.9349,4.9356,4.9364,0,0,0,0,0,0,0,0,0,0,0,0,0,4.8944,4.8812,4.9127,4.9125,4.9126,4.9269,4.9271,4.9274,4.9226,4.9222,4.9217,4.9213,4.9346,4.9356,4.9365,4.9517,0,0,4.9395,4.9399,0,0,0,0,0,0,0,0,4.8936,4.8956,4.9123,4.9125,4.9127,4.9225,4.9206,4.9355,4.9227,4.9188,4.9216,4.9211,4.9312,4.9324,4.9361,4.9523,4.9529,4.9396,4.9401,4.9406,4.9408,0,0,0,0,0,0,0,4.8927,4.895,4.9183,4.9126,4.9128,4.9112,4.9127,4.9234,4.9274,4.9191,4.9188,4.9206,4.9312,4.9351,4.9363,4.9531,4.9395,4.9404,4.941,4.9414,4.9819,4.9824,0,0,0,0,0,0,4.8918,4.8942,4.9179,4.9188,4.9019,4.9121,4.9138,4.9198,4.9272,4.928,4.921,4.9203,4.9337,4.9352,4.9368,4.9548,4.9406,4.9415,4.942,4.9815,4.9821,4.9826,0,0,0,0,0,0,4.8911,4.8939,4.9173,4.9064,4.9093,4.9132,4.9199,4.9203,4.9243,4.9287,4.9292,4.9243,4.9334,4.9354,4.948,4.9552,4.9419,4.9428,4.9809,4.9816,4.9823,4.991,0,0,0,0,0,0,4.8902,4.8937,4.8999,4.9066,4.9099,4.9287,4.9204,4.9209,4.9261,4.9253,4.932,4.9326,4.9332,4.9466,4.9489,4.9562,4.9435,4.9802,4.9812,4.9821,4.99,4.9919,4.9935,0,0,0,0,0,4.889,4.9016,4.9002,4.9031,4.9177,4.9291,4.931,4.9317,4.9267,4.9326,4.9354,4.9324,4.954,4.9479,4.9505,4.9582,4.9798,4.9809,4.982,4.9893,4.9915,4.9935,0,0,0,0,0,0,4.8953,4.9025,4.901,4.9162,4.9221,4.9283,4.9359,4.9341,4.9413,4.9403,4.9405,4.942,4.9549,4.9578,4.9508,4.973,4.9661,4.9678,4.9707,4.9729,4.9746,4.9735,4.9443,0,0,0,0,0,4.8985,4.9076,4.9132,4.926,4.9291,4.932,4.937,4.937,4.943,4.9454,4.9491,4.9547,4.9627,4.9679,4.9756,4.9904,4.9916,4.997,4.9987,5.0001,5.0015,5.0092,5.0115,4.9863,4.9863,4.9862,0,0,4.9051,4.9101,4.9158,4.9274,4.932,4.9409,4.9341,4.944,4.9505,4.9468,4.9589,4.9617,4.968,4.9817,4.9878,4.9845,5.0087,5.0015,5.0026,5.0033,5.0106,5.0129,5.0151,4.987,4.9869,4.9868,0,0,4.9217,4.9266,4.9377,4.9424,4.9495,4.9513,4.954,4.9604,4.9622,4.9744,4.9717,4.9792,4.9932,4.9976,5.0017,5.0196,5.017,5.022,5.031,5.0385,5.0405,5.0422,5.0483,5.0505,5.0235,5.0235,5.0235,0,4.9289,4.9427,4.9435,4.9536,4.9585,4.9558,4.9667,4.9712,4.9803,4.9836,4.9797,4.9969,5.0009,5.0154,5.0198,5.0233,5.0259,5.0213,5.0402,5.0419,5.0436,5.0494,5.0517,5.024,5.024,5.0239,5.0239,0,4.951,4.9606,4.9686,4.9777,4.9836,4.994,4.996,5.0017,5.0011,5.0031,5.0153,5.02,5.0284,5.0318,5.0313,5.0462,5.0438,5.0401,5.0331,5.0465,5.052,5.0542,5.0248,5.0246,5.0245,5.0243,0,0,4.9721,4.9814,4.9843,4.9883,4.9958,5.0029,5.013,5.0215,5.0262,5.0324,5.0406,5.0523,5.0488,5.0534,5.0533,5.0599,5.0733,5.0553,5.0554,5.0583,5.0895,5.0922,5.0948,5.0717,5.0721,5.0725,5.0889,0,4.9891,5.0073,5.0081,5.0244,5.0329,5.0303,5.039,5.0443,5.0464,5.0536,5.0557,5.0639,5.0589,5.0616,5.068,5.0704,5.0796,5.0692,5.0789,5.0792,5.0773,5.0977,5.1006,5.1159,5.0911,5.0914,5.0917,0,5.0115,5.0187,5.0359,5.0419,5.0455,5.0534,5.0609,5.068,5.0737,5.0747,5.0798,5.0786,5.0884,5.0811,5.0944,5.0873,5.0912,5.0929,5.0935,5.0943,5.0862,5.0988,5.1209,5.1231,5.0951,5.0948,5.0946,0,5.0248,5.0387,5.0508,5.0542,5.0616,5.0671,5.0703,5.0756,5.0805,5.087,5.0901,5.0976,5.1016,5.1072,5.1078,5.1026,5.121,5.1139,5.1218,5.1217,5.1257,5.1254,5.1485,5.1286,5.1285,5.1285,5.1284,0,5.0437,5.0542,5.0568,5.0642,5.0758,5.0764,5.0877,5.0904,5.0951,5.1026,5.1007,5.1076,5.1082,5.1153,5.1158,5.1265,5.1283,5.1291,5.1291,5.1292,5.1291,5.1317,5.1306,5.1291,5.129,5.1288,5.1287,0,5.0605,5.0628,5.0756,5.0815,5.0832,5.0914,5.0962,5.103,5.1048,5.1143,5.1165,5.1192,5.1274,5.1287,5.1382,5.1385,5.1512,5.1502,5.1494,5.1492,5.1569,5.1561,5.1824,5.1857,5.1638,5.164,5.1641,0,5.0724,5.0805,5.0872,5.0922,5.0958,5.1039,5.109,5.1097,5.1149,5.1218,5.1277,5.1357,5.1422,5.1552,5.1578,5.165,5.1639,5.1726,5.165,5.1647,5.1638,5.1632,5.1638,5.1741,5.1743,5.1745,5.1747,0,5.093,5.0937,5.1012,5.109,5.1151,5.1212,5.127,5.1311,5.1325,5.1383,5.1468,5.1518,5.1616,5.1694,5.1764,5.1792,5.1771,5.1771,5.1792,5.1794,5.1785,5.1788,5.1532,5.1764,5.1763,5.1761,5.176,5.176,5.1076,5.1145,5.1203,5.1286,5.133,5.1384,5.145,5.1476,5.1548,5.163,5.1629,5.172,5.177,5.1863,5.1896,5.1965,5.1936,5.1968,5.1976,5.1983,5.199,5.1775,5.1978,5.1978,5.1977,5.1977,5.1976,0,5.1279,5.1315,5.1391,5.1473,5.1537,5.1514,5.1575,5.1629,5.1711,5.1762,5.1826,5.192,5.1995,5.2026,5.2099,5.2148,5.2139,5.2166,5.2162,5.2168,5.2013,5.1986,5.2172,5.2172,5.2172,5.2172,5.2171,5.2171,5.1393,5.1508,5.152,5.1655,5.1688,5.1781,5.1817,5.1865,5.1905,5.2013,5.2076,5.2097,5.2138,5.2212,5.2278,5.2285,5.2311,5.2343,5.2345,5.2199,5.2179,5.216,5.2135,5.2349,5.2349,5.2494,5.2495,5.2496]}]]